Weather History for New Haven, CT

Change the Weather History Date:

Thursday, July 18, 2013

  Actual Average Record
Temperature  
Mean Temperature 84 °F -  
Max Temperature 95 °F 78 °F 100 °F (1987)
Min Temperature 75 °F 63 °F 58 °F (1976)
Cooling Degree Days 19    
Growing Degree Days 34 (Base 50)    
Moisture  
Dew Point 73 °F    
Average Humidity 65    
Maximum Humidity 88    
Minimum Humidity 47    
Precipitation  
Precipitation 0.00 in - - ()
Sea Level Pressure  
Sea Level Pressure 30.00 in    
Wind  
Wind Speed 3 mph (SW)    
Max Wind Speed 8 mph    
Max Gust Speed 16 mph    
Visibility 10 miles    
Events      
Averages and records for this station are not official NWS values.
T = Trace of Precipitation, MM = Missing Value Source: NWS Daily Summary

Daily Weather History Graph

Daily Weather History Graph

Search for Another Location

Airport:

Trip Planner

Search our weather history database for the weather conditions in past years. The results will help you decide how hot, cold, wet, or windy it might be!

Date:

Astronomy

Jul. 18, 2013 Rise Set
Actual Time 5:34 AM EDT 8:20 PM EDT
Civil Twilight 5:01 AM EDT 8:53 PM EDT
Nautical Twilight 4:20 AM EDT 9:34 PM EDT
Astronomical Twilight 3:33 AM EDT 10:20 PM EDT
Moon 4:14 PM EDT (7/18) 1:22 AM EDT (7/18)
Length of Visible Light 15h 51m
Length of Day
14h 46m
Waxing Gibbous, 77% of the Moon is Illuminated
Jul 18
Waxing Gibbous
Jul 22
Full
Jul 29
Last Quarter
Aug 6
New
Aug 14
First Quarter

Hourly Weather History & Observations

Time (EDT) Temp. Heat Index Dew Point Humidity Pressure Visibility Wind Dir Wind Speed Gust Speed Precip Events Conditions
12:53 AM 81.0 °F 85.2 °F 72.0 °F 74% 30.06 in 10.0 mi Variable 3.5 mph - N/A   Clear
1:53 AM 80.1 °F 83.6 °F 71.1 °F 74% 30.04 in 10.0 mi South 3.5 mph - N/A   Clear
2:53 AM 81.0 °F 85.2 °F 72.0 °F 74% 30.03 in 10.0 mi Calm Calm - N/A   Clear
3:53 AM 81.0 °F 84.4 °F 70.0 °F 69% 30.01 in 10.0 mi Calm Calm - N/A   Clear
4:53 AM 78.1 °F - 71.1 °F 79% 30.01 in 10.0 mi Calm Calm - N/A   Clear
5:53 AM 75.9 °F - 71.1 °F 85% 30.02 in 10.0 mi Calm Calm - N/A   Scattered Clouds
6:53 AM 81.0 °F 84.9 °F 71.1 °F 72% 30.03 in 10.0 mi Calm Calm - N/A   Partly Cloudy
7:53 AM 82.9 °F 88.0 °F 72.0 °F 69% 30.04 in 10.0 mi WNW 3.5 mph - N/A   Scattered Clouds
8:53 AM 90.0 °F 97.9 °F 73.0 °F 57% 30.03 in 10.0 mi NW 5.8 mph - N/A   Partly Cloudy
9:53 AM 93.0 °F 100.7 °F 72.0 °F 50% 30.03 in 10.0 mi NNW 5.8 mph - N/A   Partly Cloudy
10:53 AM 91.0 °F 99.3 °F 73.0 °F 55% 30.03 in 10.0 mi WSW 4.6 mph - N/A   Partly Cloudy
11:53 AM 93.9 °F 103.4 °F 73.0 °F 51% 30.02 in 10.0 mi Variable 4.6 mph - N/A   Partly Cloudy
12:53 PM 93.0 °F 103.2 °F 73.9 °F 54% 30.01 in 10.0 mi SSW 6.9 mph - N/A   Partly Cloudy
1:53 PM 93.9 °F 104.0 °F 73.9 °F 52% 30.01 in 10.0 mi SSW 5.8 mph 16.1 mph N/A   Partly Cloudy
2:53 PM 93.0 °F 103.2 °F 73.9 °F 54% 29.99 in 10.0 mi SSW 5.8 mph - N/A   Clear
3:53 PM 93.0 °F 101.9 °F 73.0 °F 52% 29.98 in 10.0 mi SSW 8.1 mph - N/A   Partly Cloudy
4:53 PM 93.0 °F 103.2 °F 73.9 °F 54% 29.97 in 10.0 mi SSW 5.8 mph - N/A   Partly Cloudy
5:53 PM 93.0 °F 100.1 °F 71.1 °F 49% 29.96 in 10.0 mi SSW 5.8 mph - N/A   Partly Cloudy
6:53 PM 93.0 °F 99.0 °F 70.0 °F 47% 29.97 in 10.0 mi SSW 5.8 mph - N/A   Scattered Clouds
7:53 PM 89.1 °F 96.0 °F 72.0 °F 57% 29.97 in 10.0 mi Calm Calm - N/A   Clear
8:53 PM 86.0 °F 95.1 °F 75.0 °F 70% 29.98 in 10.0 mi SSW 6.9 mph - N/A   Mostly Cloudy
9:53 PM 82.9 °F 90.8 °F 75.9 °F 79% 29.98 in 10.0 mi Variable 3.5 mph - N/A   Clear
10:53 PM 80.1 °F 85.4 °F 75.9 °F 87% 29.97 in 9.0 mi Calm Calm - N/A   Clear
11:53 PM 79.0 °F - 75.0 °F 88% 29.96 in 8.0 mi Calm Calm - N/A   Clear